Date,TemperatureHighF,TemperatureAvgF,TemperatureLowF,DewpointHighF,DewpointAvgF,DewpointLowF,HumidityHigh,HumidityAvg,HumidityLow,PressureMaxIn,PressureMinIn,WindSpeedMaxMPH,WindSpeedAvgMPH,GustSpeedMaxMPH,PrecipitationSumIn
2013-3-1,76.5,58.3,45.0,53.4,43.4,38.6,91,63,31,30.15,29.97,8,1,8,0.00
2013-3-2,76.8,60.0,48.7,48.1,43.0,36.4,85,57,27,29.97,29.80,8,1,8,0.00
2013-3-3,67.3,57.4,50.9,49.7,43.3,37.1,82,62,35,29.85,29.77,10,1,10,0.00
2013-3-4,65.1,52.9,43.9,41.6,39.2,35.2,82,61,38,29.88,29.80,10,1,10,0.00
2013-3-5,60.1,51.7,43.5,42.4,36.5,31.1,86,59,36,29.83,29.65,14,0,14,0.00
2013-3-6,60.3,52.2,42.6,46.9,36.2,30.2,85,57,34,29.83,29.65,8,0,8,0.00
2013-3-7,64.6,50.2,39.2,46.4,37.1,27.9,88,66,28,29.74,29.59,8,0,8,0.00
2013-3-8,64.6,53.0,46.4,49.1,38.4,30.3,87,61,33,29.83,29.56,13,0,13,0.00
2013-3-9,68.7,53.5,41.2,37.9,35.1,30.4,79,53,26,30.03,29.83,10,0,10,0.00
2013-3-10,74.1,56.1,39.6,45.4,34.5,28.3,88,51,21,30.06,29.97,12,1,12,0.00
2013-3-11,76.3,56.7,38.5,44.1,35.3,31.0,85,50,23,30.00,29.85,10,2,10,0.00
2013-3-12,76.6,59.8,47.3,47.3,43.3,39.4,85,59,30,29.88,29.80,8,1,8,0.00
2013-3-13,80.6,62.9,48.0,54.8,45.7,42.3,88,59,27,29.91,29.80,12,2,12,0.00
2013-3-14,75.0,60.1,48.9,53.3,44.0,35.1,86,59,27,29.91,29.83,12,2,12,0.00
2013-3-15,73.6,57.8,44.6,47.1,41.5,36.8,85,59,28,29.88,29.80,9,1,9,0.00
2013-3-16,74.7,59.0,51.6,48.8,43.0,34.2,85,60,24,29.88,29.77,12,1,12,0.00
2013-3-17,71.4,56.1,44.4,47.3,37.6,30.3,87,55,23,29.88,29.80,12,1,12,0.00
2013-3-18,69.4,55.8,41.7,44.2,37.9,35.3,87,55,32,29.88,29.77,8,1,8,0.00
2013-3-19,74.7,57.5,44.6,50.5,39.2,33.3,83,55,25,29.88,29.80,10,1,10,0.00
2013-3-20,72.1,60.3,54.7,54.5,48.0,39.0,86,67,33,29.88,29.80,13,1,13,0.00
2013-3-21,67.8,55.7,44.6,44.6,37.1,33.2,76,52,33,29.88,29.74,10,1,10,0.00
2013-3-22,71.2,56.4,42.1,39.9,30.6,22.1,82,43,17,29.85,29.77,12,1,12,0.00
2013-3-23,71.8,55.5,38.1,37.9,29.6,22.7,74,42,17,29.88,29.77,10,1,10,0.00
2013-3-24,74.5,56.1,39.7,42.5,37.0,32.2,84,52,26,29.83,29.71,8,1,8,0.00
2013-3-25,64.8,53.4,45.0,46.9,39.7,35.7,87,62,37,29.77,29.71,9,0,9,0.00
2013-3-26,70.9,56.4,45.5,42.5,38.3,34.5,79,53,33,29.77,29.68,10,1,10,0.00
2013-3-27,73.8,58.6,46.6,46.9,42.7,39.3,84,59,33,29.77,29.71,12,0,12,0.00
2013-3-28,78.1,63.2,55.6,52.1,46.7,41.9,82,58,30,29.83,29.74,10,2,10,0.00
2013-3-29,84.4,65.8,55.4,51.4,46.5,41.5,82,54,26,29.83,29.74,15,1,15,0.00
2013-3-30,75.7,62.0,54.7,50.6,45.0,38.0,79,56,30,29.83,29.71,13,1,13,0.00
2013-3-31,72.3,61.3,55.8,54.6,45.9,38.4,85,60,33,29.83,29.74,13,0,13,0.00